Time,TemperatureF,DewpointF,PressureIn,WindDirection,WindDirectionDegrees,WindSpeedMPH,WindSpeedGustMPH,Humidity,HourlyPrecipIn,Conditions,Clouds,dailyrainin,SolarRadiationWatts/m^2,SoftwareType,DateUTC
2013-05-10 10:30:00,83.7,73.7,30.09,East,90,5.0,14.0,72,0.00,,---,0.00,698.00,VWS V14.01,2013-05-10 14:30:00,
2013-05-10 11:33:00,84.8,73.1,30.08,SE,126,4.0,13.0,68,0.00,,---,0.00,844.00,VWS V14.01,2013-05-10 15:33:00,
2013-05-10 12:03:00,85.8,73.6,30.08,ESE,121,0.0,15.0,67,0.00,,---,0.00,884.00,VWS V14.01,2013-05-10 16:03:00,
2013-05-10 12:33:00,85.5,74.2,30.07,ESE,121,8.0,16.0,69,0.00,,---,0.00,951.00,VWS V14.01,2013-05-10 16:33:00,
2013-05-10 13:03:00,85.4,73.2,30.07,ESE,121,4.0,14.0,67,0.00,,---,0.00,937.00,VWS V14.01,2013-05-10 17:03:00,
2013-05-10 13:33:00,86.6,73.9,30.06,East,93,5.0,13.0,66,0.00,,---,0.00,911.00,VWS V14.01,2013-05-10 17:33:00,
2013-05-10 14:03:00,86.0,73.8,30.06,East,89,9.0,14.0,67,0.00,,---,0.00,907.00,VWS V14.01,2013-05-10 18:03:00,
2013-05-10 14:33:00,86.7,75.8,30.05,ESE,111,5.0,15.0,70,0.00,,---,0.00,935.00,VWS V14.01,2013-05-10 18:33:00,
2013-05-10 15:03:00,84.3,74.3,30.04,East,81,5.0,14.0,72,0.00,,---,0.00,309.00,VWS V14.01,2013-05-10 19:03:00,
2013-05-10 15:33:00,80.8,75.2,30.04,ESE,119,9.0,13.0,83,0.01,,---,0.01,25.00,VWS V14.01,2013-05-10 19:33:00,
2013-05-10 16:03:00,78.2,74.7,30.04,ENE,75,0.0,11.0,89,0.16,,---,0.16,135.00,VWS V14.01,2013-05-10 20:03:00,
2013-05-10 16:33:00,79.8,77.6,30.03,ESE,120,0.0,9.0,93,0.17,,---,0.17,745.00,VWS V14.01,2013-05-10 20:33:00,
2013-05-10 17:03:00,81.2,75.9,30.01,East,101,6.0,14.0,84,0.16,,---,0.17,388.00,VWS V14.01,2013-05-10 21:03:00,
2013-05-10 17:33:00,81.1,75.4,30.01,East,86,2.0,13.0,83,0.01,,---,0.17,367.00,VWS V14.01,2013-05-10 21:33:00,
2013-05-10 18:03:00,80.3,74.7,30.01,ESE,123,7.0,12.0,83,0.00,,---,0.17,345.00,VWS V14.01,2013-05-10 22:03:00,
2013-05-10 18:33:00,80.3,73.9,30.02,ESE,105,2.0,15.0,81,0.00,,---,0.17,95.00,VWS V14.01,2013-05-10 22:33:00,
2013-05-10 19:03:00,79.3,73.7,30.02,ESE,117,2.0,12.0,83,0.00,,---,0.17,83.00,VWS V14.01,2013-05-10 23:03:00,
2013-05-10 19:33:00,79.1,73.5,30.03,SE,136,2.0,17.0,83,0.00,,---,0.17,35.00,VWS V14.01,2013-05-10 23:33:00,
2013-05-10 20:03:00,78.7,73.5,30.04,SSE,150,1.0,12.0,84,0.00,,---,0.17,0.00,VWS V14.01,2013-05-11 00:03:00,
2013-05-10 20:33:00,77.2,68.7,30.05,SW,221,4.0,10.0,75,0.00,,---,0.17,0.00,VWS V14.01,2013-05-11 00:33:00,
2013-05-10 21:03:00,75.8,68.5,30.02,SW,214,0.0,4.0,78,0.00,,---,0.17,0.00,VWS V14.01,2013-05-11 01:03:00,
2013-05-10 21:33:00,75.0,68.8,30.02,South,169,0.0,5.0,81,0.00,,---,0.17,0.00,VWS V14.01,2013-05-11 01:33:00,
2013-05-10 22:03:00,74.4,68.6,30.02,SSE,164,0.0,2.0,82,0.00,,---,0.17,0.00,VWS V14.01,2013-05-11 02:03:00,
2013-05-10 22:33:00,74.0,68.5,30.03,South,173,0.0,4.0,83,0.00,,---,0.17,0.00,VWS V14.01,2013-05-11 02:33:00,
2013-05-10 23:03:00,73.5,68.4,30.04,South,173,0.0,3.0,84,0.00,,---,0.17,0.00,VWS V14.01,2013-05-11 03:03:00,
2013-05-10 23:33:00,73.0,68.2,30.05,South,173,0.0,0.0,85,0.00,,---,0.17,0.00,VWS V14.01,2013-05-11 03:33:00,